User: anonymous   Login
Location: *
(51.5000°N, 0.1100°W)
Time: 22:23:47
(UTC+00:00)
Language:

Okean 1-7 - Orbit

View from above orbital plane
View from above orbital plane
View from above satellite
View from above satellite

Ground track
Ground track

The orbit data is extracted from the following two-line orbital elements,

1 23317U 94066A   24206.49006225  .00003865  00000-0  37511-3 0  9995
2 23317  82.5351 194.7018 0020028  82.7168 277.6328 14.92255437611821
Epoch (UTC): 24 July 2024 11:45:41
Eccentricity: 0.0020028
inclination: 82.5351°
perigee height: 577 km
apogee height: 605 km
right ascension of ascending node: 194.7018°
argument of perigee: 82.7168°
revolutions per day: 14.92255437
mean anomaly at epoch: 277.6328°
orbit number at epoch: 61182

The dashed part of the orbit path shows where the satellite is in the earth's shadow,  

DLR